Regional Weather Roundup
Issued by NWS

Home | Current Version | Previous Version | Graphics & Text | Print | Product List | Glossary On
Versions: 1 2 3 4 5 6 7 8 9 10 11 12 13 14 15 16 17 18 19 20 21 22 23 24 25 26 27 28 29 30 31 32 33 34 35 36 37 38 39 40 41 42 43 44 45 46 47 48 49 50
365
ASUS44 KLIX 310001
RWRLA
LOUISIANA WEATHER ROUNDUP
NATIONAL WEATHER SERVICE NEW ORLEANS LA
700 PM CDT THU OCT 30 2014

NOTE: "FAIR" INDICATES FEW OR NO CLOUDS BELOW 12,000 FEET WITH NO
      SIGNIFICANT WEATHER AND/OR OBSTRUCTIONS TO VISIBILITY.
      SKY/WX - SKY CONDITION AND SIGNIFICANT WEATHER.
      TMP - AIR TEMPERATURE.    DP   - DEWPOINT TEMPERATURE.
      RH  - RELATIVE HUMIDITY.  PRES - PRESSURE.
      HX  - HEAT INDEX.         WCI  - WIND CHILL INDEX.

*  THESE STATIONS ARE NOT NWS OR FAA STATIONS AND ARE NOT UNDER
   NWS QUALITY CONTROL.

LAZ040-048-061>063-065-066-069-310100-
SOUTHEAST LOUISIANA

CITY           SKY/WX    TMP DP  RH WIND       PRES   REMARKS
N.O. AUDUBON     N/A     64 N/A N/A MISG        N/A
6HR MIN TEMP:  65; 6HR MAX TEMP:  76;

N.O. INTL ARPT CLEAR     67  44  43 NW5       30.04R
6HR MIN TEMP:  67; 6HR MAX TEMP:  74;

N.O. LAKEFRONT CLEAR     70  50  49 NW8       30.04R
6HR MIN TEMP:  70; 6HR MAX TEMP:  74;

N.O. DOWNTOWN* FAIR      70  43  37 CALM      30.04S
6HR MIN TEMP:  70; 6HR MAX TEMP:  73;

SLIDELL        CLEAR     59  50  72 CALM      30.03R
6HR MIN TEMP:  59; 6HR MAX TEMP:  76;

BATON ROUGE    CLEAR     61  48  62 CALM      30.04F
6HR MIN TEMP:  61; 6HR MAX TEMP:  75;

BOOTHVILLE     CLEAR     67  51  56 N3        30.03S
6HR MIN TEMP:  67; 6HR MAX TEMP:  72;

BELLE CHASSE   CLEAR     57  50  77 CALM      30.03R
6HR MIN TEMP:  57; 6HR MAX TEMP:  75;

BOGALUSA*      FAIR      59  45  59 CALM      30.05S
6HR MIN TEMP:  58; 6HR MAX TEMP:  76;

NEW ROADS*     FAIR      63  48  59 NW6       30.06R
6HR MIN TEMP:  63; 6HR MAX TEMP:  74;

GONZALES*      FAIR      60  54  81 CALM      30.04S
6HR MIN TEMP:  60; 6HR MAX TEMP:  75;

HAMMOND*       NOT AVBL
HOUMA*         CLEAR     59  39  47 N5        30.04R
PORT FOURCHON* CLEAR     70  50  49 NE5       30.06S

$$

LAZ041-044-053-054-310100-
SOUTHWEST LOUISIANA

CITY           SKY/WX    TMP DP  RH WIND       PRES   REMARKS
LAKE CHARLES   CLEAR     62  49  62 CALM      30.06R
6HR MIN TEMP:  61; 6HR MAX TEMP:  77;

LAFAYETTE      CLEAR     63  53  70 CALM      30.06R
6HR MIN TEMP:  63; 6HR MAX TEMP:  76;

PATTERSON      CLEAR     66  48  52 N5        30.07S
6HR MIN TEMP:  66; 6HR MAX TEMP:  75;

SALT POINT       N/A     66  52  60 CALM      30.04R
6HR MIN TEMP:  66; 6HR MAX TEMP:  77;

NEW IBERIA     CLEAR     63  47  55 NE3       30.06R
6HR MIN TEMP:  63; 6HR MAX TEMP:  77;

CHENAULT AIRPK CLEAR     66  48  52 N3        30.07R

$$

LAZ027-028-310100-
CENTRAL LOUISIANA

CITY           SKY/WX    TMP DP  RH WIND       PRES   REMARKS
FORT POLK      NOT AVBL
ALEXANDRIA INT CLEAR     59  50  72 CALM      30.05S
6HR MIN TEMP:  59; 6HR MAX TEMP:  75;

ALEXANDRIA     CLEAR     57  52  83 CALM      30.07R
6HR MIN TEMP:  57; 6HR MAX TEMP:  75;


$$

LAZ001-002-310100-
NORTHWEST LOUISIANA

CITY           SKY/WX    TMP DP  RH WIND       PRES   REMARKS
SHREVEPORT     PTCLDY    64  48  56 CALM      30.06S
6HR MIN TEMP:  61; 6HR MAX TEMP:  74;

BARKSDALE AFB  CLEAR     62  45  53 CALM      30.06S
6HR MIN TEMP:  62; 6HR MAX TEMP:  74;

DTN SHREVEPORT CLEAR     61  47  59 CALM      30.06S
6HR MIN TEMP:  61; 6HR MAX TEMP:  73;


$$

LAZ014-016-310100-
NORTHEAST LOUISIANA

CITY           SKY/WX    TMP DP  RH WIND       PRES   REMARKS
MONROE         CLEAR     59  50  72 CALM      30.07S
6HR MIN TEMP:  58; 6HR MAX TEMP:  74;

TALLULAH       CLEAR     53  48  83 CALM      30.06S
6HR MIN TEMP:  53; 6HR MAX TEMP:  74;


$$




USA.gov is the U.S. government's official web portal to all federal, state and local government web resources and services.